Zephyrhills, FL

3:45 PM EDT on August 17, 2017 (GMT -0400)
Zephyrhills Municipal

Weather History for KZPH - August, 2012

Change the Weather History Date:

Tuesday, August 21, 2012

  Actual Average (KPCM) Record (KPCM)
Temperature  
Mean Temperature 79 °F -  
Max Temperature 89 °F 91 °F 97 °F (1983)
Min Temperature 69 °F 72 °F 67 °F (1984)
Cooling Degree Days 14    
Growing Degree Days 29 (Base 50)    
Moisture  
Dew Point 70 °F    
Average Humidity 86    
Maximum Humidity 94    
Minimum Humidity 52    
Precipitation  
Precipitation 0.87 in - - ()
Sea Level Pressure  
Sea Level Pressure 30.04 in    
Wind  
Wind Speed 5 mph ()    
Max Wind Speed 28 mph    
Max Gust Speed 37 mph    
Visibility 9.2 miles    
Events Rain , Thunderstorm    
Averages and records for this station are not official NWS values.
T = Trace of Precipitation, MM = Missing Value Source: Averaged Metar Reports

Daily Weather History Graph

Daily Weather History Graph

Search for Another Location

Airport or City:

Trip Planner

Search our weather history database for the weather conditions in past years. The results will help you decide how hot, cold, wet, or windy it might be!

Date:

Astronomy

Aug. 21, 2012 Rise Set
Actual Time 7:01 AM EDT 8:00 PM EDT
Civil Twilight 6:37 AM EDT 8:25 PM EDT
Nautical Twilight 6:08 AM EDT 8:54 PM EDT
Astronomical Twilight 5:39 AM EDT 9:23 PM EDT
Moon 11:01 AM EDT (8/21) 10:32 PM EDT (8/21)
Length of Visible Light 13h 47m
Length of Day
12h 59m
Waxing Crescent, 19% of the Moon is Illuminated
Aug 21
Waxing Crescent
Aug 24
First Quarter
Aug 31
Full
Sep 8
Last Quarter
Sep 15
New

Hourly Weather History & Observations

Time (EDT) Temp. Heat Index Dew Point Humidity Pressure Visibility Wind Dir Wind Speed Gust Speed Precip Events Conditions
12:15 AM 71.6 °F - 69.8 °F 94% 30.02 in 10.0 mi SE 4.6 mph - N/A Thunderstorm Scattered Clouds
12:35 AM 71.6 °F - 69.8 °F 94% 30.02 in 10.0 mi SE 5.8 mph - N/A   Clear
12:55 AM 71.6 °F - 69.8 °F 94% 30.01 in 10.0 mi ESE 5.8 mph - N/A   Clear
1:15 AM 71.6 °F - 69.8 °F 94% 30.00 in 10.0 mi ESE 4.6 mph - N/A   Clear
1:35 AM 71.6 °F - 69.8 °F 94% 29.99 in 10.0 mi SE 5.8 mph - N/A   Clear
1:55 AM 71.6 °F - 69.8 °F 94% 29.99 in 10.0 mi Calm Calm - N/A   Clear
2:15 AM 71.6 °F - 69.8 °F 94% 29.99 in 10.0 mi Calm Calm - N/A   Clear
2:35 AM 71.6 °F - 69.8 °F 94% 29.99 in 10.0 mi SE 4.6 mph - N/A   Clear
2:55 AM 71.6 °F - 69.8 °F 94% 29.98 in 10.0 mi SE 3.5 mph - N/A   Clear
3:15 AM 71.6 °F - 69.8 °F 94% 29.98 in 10.0 mi SSE 4.6 mph - N/A   Clear
3:35 AM 71.6 °F - 69.8 °F 94% 29.97 in 10.0 mi SE 5.8 mph - N/A   Clear
3:55 AM 71.6 °F - 69.8 °F 94% 29.98 in 10.0 mi SSE 4.6 mph - N/A   Clear
4:15 AM 71.6 °F - 69.8 °F 94% 29.98 in 10.0 mi SE 3.5 mph - N/A   Clear
4:35 AM 71.6 °F - 69.8 °F 94% 29.98 in 10.0 mi Calm Calm - N/A   Clear
4:55 AM 71.6 °F - 69.8 °F 94% 29.99 in 10.0 mi Calm Calm - N/A   Clear
5:15 AM 71.6 °F - 69.8 °F 94% 29.99 in 10.0 mi South 3.5 mph - N/A   Clear
5:35 AM 71.6 °F - 69.8 °F 94% 30.00 in 10.0 mi Calm Calm - N/A   Clear
5:55 AM 71.6 °F - 69.8 °F 94% 30.00 in 10.0 mi Calm Calm - N/A   Clear
6:15 AM 71.6 °F - 69.8 °F 94% 30.01 in 10.0 mi Calm Calm - N/A   Clear
6:35 AM 71.6 °F - 69.8 °F 94% 30.02 in 10.0 mi Calm Calm - N/A   Clear
6:55 AM 71.6 °F - 69.8 °F 94% 30.03 in 10.0 mi Calm Calm - N/A   Clear
7:15 AM 71.6 °F - 69.8 °F 94% 30.03 in 10.0 mi Calm Calm - N/A   Clear
7:35 AM 71.6 °F - 69.8 °F 94% 30.04 in 10.0 mi Calm Calm - N/A   Clear
7:55 AM 73.4 °F - 71.6 °F 94% 30.03 in 10.0 mi Calm Calm - N/A   Clear
8:15 AM 73.4 °F - 71.6 °F 94% 30.04 in 10.0 mi Calm Calm - N/A   Clear
8:35 AM 77.0 °F - 73.4 °F 89% 30.03 in 10.0 mi South 5.8 mph - N/A   Clear
8:55 AM 77.0 °F - 73.4 °F 89% 30.03 in 10.0 mi South 6.9 mph - N/A   Clear
9:15 AM 78.8 °F - 73.4 °F 83% 30.02 in 10.0 mi South 6.9 mph - N/A   Clear
9:35 AM 80.6 °F 85.4 °F 73.4 °F 79% 30.02 in 10.0 mi South 6.9 mph - N/A   Clear
9:55 AM 82.4 °F 88.2 °F 73.4 °F 74% 30.02 in 10.0 mi South 11.5 mph - N/A   Clear
10:15 AM 84.2 °F 90.9 °F 73.4 °F 70% 30.02 in 10.0 mi SSW 9.2 mph - N/A   Clear
10:35 AM 86.0 °F 93.4 °F 73.4 °F 66% 30.02 in 10.0 mi SSW 10.4 mph - N/A   Clear
10:55 AM 86.0 °F 93.4 °F 73.4 °F 66% 30.01 in 10.0 mi SSW 4.6 mph - N/A   Clear
11:15 AM 87.8 °F 93.8 °F 71.6 °F 58% 30.01 in 10.0 mi SSW 6.9 mph - N/A   Clear
11:55 AM 87.8 °F 93.8 °F 71.6 °F 58% 30.00 in 10.0 mi SW 10.4 mph - N/A   Clear
12:15 PM 89.6 °F 94.7 °F 69.8 °F 52% 29.99 in 10.0 mi SSW 10.4 mph - N/A   Scattered Clouds
12:35 PM 89.6 °F 96.2 °F 71.6 °F 55% 29.99 in 10.0 mi SW 10.4 mph - N/A   Scattered Clouds
12:55 PM 87.8 °F 93.8 °F 71.6 °F 58% 29.99 in 10.0 mi SSW 6.9 mph - N/A   Scattered Clouds
1:15 PM 89.6 °F 94.7 °F 69.8 °F 52% 30.00 in 10.0 mi WSW 13.8 mph 18.4 mph N/A   Mostly Cloudy
1:35 PM 89.6 °F 94.7 °F 69.8 °F 52% 30.00 in 10.0 mi SW 11.5 mph 16.1 mph N/A   Scattered Clouds
1:55 PM 89.6 °F 94.7 °F 69.8 °F 52% 30.00 in 10.0 mi SW 11.5 mph 16.1 mph N/A Thunderstorm Thunderstorm
2:15 PM 82.4 °F 85.4 °F 68.0 °F 62% 30.05 in 1.0 mi SSE 27.6 mph 36.8 mph N/A Rain , Thunderstorm Light Thunderstorms and Rain
2:35 PM 71.6 °F - 66.2 °F 83% 30.05 in 1.0 mi SE 20.7 mph 28.8 mph 0.24 in Rain , Thunderstorm Heavy Thunderstorms and Rain
2:55 PM 73.4 °F - 66.2 °F 78% 30.04 in 10.0 mi South 10.4 mph 16.1 mph 0.26 in Rain , Thunderstorm Light Thunderstorms and Rain
3:55 PM 73.4 °F - 68.0 °F 83% 30.06 in 10.0 mi NW 16.1 mph 23.0 mph N/A   Mostly Cloudy
4:15 PM 73.4 °F - 68.0 °F 83% 30.07 in 5.0 mi NNW 11.5 mph 21.9 mph 0.02 in Rain , Thunderstorm Heavy Thunderstorms and Rain
4:35 PM 71.6 °F - 68.0 °F 88% 30.07 in 7.0 mi North 16.1 mph - 0.17 in Rain , Thunderstorm Light Thunderstorms and Rain
4:55 PM 71.6 °F - 68.0 °F 88% 30.07 in 10.0 mi North 9.2 mph - 0.17 in Rain Light Rain
5:15 PM 69.8 °F - 68.0 °F 94% 30.05 in 10.0 mi North 11.5 mph - 0.01 in Rain Light Rain
5:55 PM 69.8 °F - 68.0 °F 94% 30.05 in 10.0 mi NE 5.8 mph - 0.01 in Rain , Thunderstorm Light Thunderstorms and Rain
6:15 PM 69.8 °F - 68.0 °F 94% 30.05 in 10.0 mi Calm Calm - 0.01 in Rain , Thunderstorm Light Thunderstorms and Rain
6:35 PM 69.8 °F - 68.0 °F 94% 30.07 in 7.0 mi Calm Calm - 0.02 in Rain , Thunderstorm Light Thunderstorms and Rain
6:55 PM 69.8 °F - 68.0 °F 94% 30.06 in 7.0 mi Calm Calm - 0.05 in Rain Rain
7:15 PM 69.8 °F - 68.0 °F 94% 30.07 in 5.0 mi Calm Calm - 0.05 in Rain Rain
7:35 PM 69.8 °F - 68.0 °F 94% 30.09 in 7.0 mi SE 3.5 mph - 0.08 in Rain Rain
7:55 PM 69.8 °F - 68.0 °F 94% 30.09 in 7.0 mi Calm Calm - 0.14 in Rain Rain
8:15 PM 69.8 °F - 68.0 °F 94% 30.10 in 3.0 mi Calm Calm - 0.05 in Rain Rain
8:35 PM 69.8 °F - 68.0 °F 94% 30.10 in 4.0 mi Calm Calm - 0.14 in Rain Rain
8:55 PM 69.8 °F - 68.0 °F 94% 30.12 in 10.0 mi SSE 3.5 mph - 0.18 in Rain Light Rain
9:15 PM 69.8 °F - 68.0 °F 94% 30.12 in 10.0 mi SSE 5.8 mph - 0.03 in Rain Light Rain
9:35 PM 69.8 °F - 68.0 °F 94% 30.12 in 10.0 mi SSE 4.6 mph - 0.03 in   Light Drizzle
9:55 PM 71.6 °F - 69.8 °F 94% 30.12 in 10.0 mi SE 4.6 mph - 0.03 in Rain Rain
10:15 PM 71.6 °F - 69.8 °F 94% 30.12 in 10.0 mi SE 4.6 mph - 0.01 in   Light Drizzle
10:35 PM 69.8 °F - 68.0 °F 94% 30.13 in 10.0 mi SE 5.8 mph - 0.01 in Rain Light Rain
10:55 PM 69.8 °F - 68.0 °F 94% 30.13 in 10.0 mi SE 8.1 mph - 0.02 in Rain Light Rain
11:15 PM 69.8 °F - 68.0 °F 94% 30.12 in 10.0 mi SSE 8.1 mph - 0.01 in Rain Rain
11:35 PM 69.8 °F - 68.0 °F 94% 30.10 in 10.0 mi SSE 4.6 mph - 0.01 in   Light Drizzle